Carbondale, IL

10:53 AM CDT on June 26, 2017 (GMT -0500)
Southern Illinois

Weather History for KMDH - September, 2014

Change the Weather History Date:

Thursday, September 11, 2014

  Actual Average Record
Temperature  
Mean Temperature 65 °F -  
Max Temperature 73 °F 81 °F 100 °F (1925)
Min Temperature 57 °F 56 °F 36 °F (1940)
Growing Degree Days 15 (Base 50)    
Moisture  
Dew Point 61 °F    
Average Humidity 87    
Maximum Humidity 93    
Minimum Humidity 78    
Precipitation  
Precipitation 0.05 in - - ()
Sea Level Pressure  
Sea Level Pressure 30.03 in    
Wind  
Wind Speed 7 mph (North)    
Max Wind Speed 12 mph    
Max Gust Speed 20 mph    
Visibility 10 miles    
Events Rain , Thunderstorm    
Averages and records for this station are not official NWS values.
T = Trace of Precipitation, MM = Missing Value Source: NWS Daily Summary

Daily Weather History Graph

Daily Weather History Graph

Search for Another Location

Airport or City:

Trip Planner

Search our weather history database for the weather conditions in past years. The results will help you decide how hot, cold, wet, or windy it might be!

Date:

Astronomy

Sep. 11, 2014 Rise Set
Actual Time 6:35 AM CDT 7:11 PM CDT
Civil Twilight 6:09 AM CDT 7:37 PM CDT
Nautical Twilight 5:37 AM CDT 8:08 PM CDT
Astronomical Twilight 5:05 AM CDT 8:40 PM CDT
Moon 8:53 PM CDT (9/11) 9:28 AM CDT (9/11)
Length of Visible Light 13h 28m
Length of Day
12h 35m
Waning Gibbous, 90% of the Moon is Illuminated
Sep 11
Waning Gibbous
Sep 15
Last Quarter
Sep 24
New
Oct 1
First Quarter
Oct 8
Full

Hourly Weather History & Observations

Time (CDT) Temp. Dew Point Humidity Pressure Visibility Wind Dir Wind Speed Gust Speed Precip Events Conditions
12:52 AM 73.0 °F 71.1 °F 93% 29.88 in 10.0 mi SW 3.5 mph - N/A   Overcast
1:01 AM 73.0 °F 71.1 °F 93% 29.88 in 10.0 mi Calm Calm - N/A   Overcast
1:52 AM 73.0 °F 71.1 °F 93% 29.89 in 9.0 mi WSW 4.6 mph - 0.00 in Rain , Thunderstorm Light Thunderstorms and Rain
2:01 AM 73.0 °F 71.1 °F 93% 29.90 in 5.0 mi NNW 6.9 mph - 0.02 in Rain Light Rain
2:23 AM 72.0 °F 70.0 °F 93% 29.90 in 10.0 mi NNW 6.9 mph - 0.02 in   Overcast
2:45 AM 72.0 °F 69.1 °F 91% 29.91 in 10.0 mi NW 9.2 mph - 0.02 in   Overcast
2:52 AM 72.0 °F 69.1 °F 91% 29.90 in 10.0 mi NNW 8.1 mph - 0.02 in   Overcast
3:12 AM 71.1 °F 69.1 °F 93% 29.91 in 10.0 mi NNW 6.9 mph - 0.01 in Rain Light Rain
3:21 AM 71.1 °F 69.1 °F 93% 29.91 in 10.0 mi NNW 8.1 mph - 0.01 in Rain Light Rain
3:28 AM 71.1 °F 68.0 °F 90% 29.92 in 10.0 mi North 6.9 mph - 0.01 in Rain Light Rain
3:39 AM 70.0 °F 68.0 °F 93% 29.92 in 8.0 mi North 5.8 mph - 0.03 in Rain Light Rain
3:52 AM 69.1 °F 64.9 °F 87% 29.91 in 10.0 mi North 10.4 mph - 0.03 in Rain Light Rain
4:28 AM 68.0 °F 64.9 °F 90% 29.93 in 10.0 mi NNE 5.8 mph - 0.00 in   Overcast
4:52 AM 66.9 °F 64.0 °F 90% 29.94 in 10.0 mi North 9.2 mph - 0.00 in   Overcast
5:52 AM 66.9 °F 64.0 °F 90% 29.96 in 10.0 mi North 9.2 mph - N/A   Overcast
6:07 AM 64.9 °F 63.0 °F 93% 29.98 in 7.0 mi North 9.2 mph 19.6 mph N/A   Overcast
6:21 AM 64.0 °F 61.0 °F 90% 29.99 in 10.0 mi North 10.4 mph 19.6 mph N/A   Overcast
6:52 AM 64.0 °F 61.0 °F 90% 30.00 in 10.0 mi North 6.9 mph - N/A   Overcast
7:27 AM 64.0 °F 61.0 °F 90% 30.03 in 10.0 mi NNW 5.8 mph - N/A   Overcast
7:52 AM 64.0 °F 61.0 °F 90% 30.02 in 10.0 mi North 6.9 mph - N/A   Overcast
8:52 AM 63.0 °F 60.1 °F 90% 30.05 in 4.0 mi North 9.2 mph - N/A   Overcast
9:52 AM 64.0 °F 59.0 °F 84% 30.06 in 10.0 mi North 9.2 mph - N/A   Overcast
10:52 AM 64.0 °F 59.0 °F 84% 30.08 in 10.0 mi North 11.5 mph - N/A   Overcast
11:40 AM 64.9 °F 59.0 °F 81% 30.09 in 10.0 mi North 10.4 mph 17.3 mph N/A   Overcast
11:52 AM 64.0 °F 57.9 °F 80% 30.09 in 10.0 mi North 8.1 mph - N/A   Overcast
12:52 PM 64.0 °F 57.9 °F 80% 30.09 in 10.0 mi North 9.2 mph - N/A   Overcast
1:52 PM 64.9 °F 57.9 °F 78% 30.09 in 10.0 mi North 11.5 mph - N/A   Overcast
3:52 PM 62.1 °F 55.9 °F 80% 30.10 in 10.0 mi North 11.5 mph - N/A   Overcast
4:52 PM 62.1 °F 55.9 °F 80% 30.10 in 10.0 mi North 11.5 mph - N/A   Overcast
5:03 PM 61.0 °F 55.0 °F 81% 30.10 in 10.0 mi North 9.2 mph 18.4 mph N/A   Overcast
5:37 PM 61.0 °F 54.0 °F 78% 30.10 in 10.0 mi North 11.5 mph - N/A   Overcast
5:52 PM 60.1 °F 54.0 °F 80% 30.10 in 10.0 mi NNE 4.6 mph - N/A   Overcast
6:11 PM 60.1 °F 54.0 °F 80% 30.10 in 10.0 mi North 10.4 mph - N/A   Overcast
6:52 PM 59.0 °F 54.0 °F 83% 30.11 in 10.0 mi NNE 6.9 mph 18.4 mph N/A   Overcast
7:52 PM 59.0 °F 53.1 °F 81% 30.14 in 10.0 mi North 6.9 mph - N/A   Overcast
8:52 PM 59.0 °F 53.1 °F 81% 30.18 in 10.0 mi North 5.8 mph - N/A   Overcast
9:13 PM 57.9 °F 53.1 °F 84% 30.19 in 10.0 mi North 6.9 mph - N/A   Overcast
9:25 PM 57.9 °F 53.1 °F 84% 30.19 in 10.0 mi North 5.8 mph - N/A   Overcast
9:52 PM 57.9 °F 53.1 °F 84% 30.20 in 10.0 mi North 9.2 mph - N/A   Overcast
10:52 PM 57.9 °F 52.0 °F 81% 30.21 in 10.0 mi North 6.9 mph - N/A   Overcast
11:52 PM 57.0 °F 53.1 °F 87% 30.21 in 8.0 mi North 8.1 mph - N/A   Overcast